Time,TemperatureF,DewpointF,PressureIn,WindDirection,WindDirectionDegrees,WindSpeedMPH,WindSpeedGustMPH,Humidity,HourlyPrecipIn,Conditions,Clouds,dailyrainin,SoftwareType,DateUTC
2013-08-08 00:02:00,69.0,61.0,-100.00,NE,35,1.0,1.0,77,-99.99,,,-99.99,,2013-08-08 05:02:00,
2013-08-08 00:11:00,69.0,61.0,-100.00,NE,50,0.0,0.0,77,-99.99,,,-99.99,,2013-08-08 05:11:00,
2013-08-08 00:22:00,69.0,62.0,-100.00,NE,50,0.0,0.0,78,-99.99,,,-99.99,,2013-08-08 05:22:00,
2013-08-08 00:33:00,69.0,61.0,-100.00,East,95,0.0,1.0,78,-99.99,,,-99.99,,2013-08-08 05:33:00,
2013-08-08 00:43:00,68.0,61.0,-100.00,North,10,4.0,4.0,78,-99.99,,,-99.99,,2013-08-08 05:43:00,
2013-08-08 00:52:00,68.0,61.0,-100.00,NNE,30,0.0,1.0,77,-99.99,,,-99.99,,2013-08-08 05:52:00,
2013-08-08 01:01:00,68.0,61.0,-100.00,East,80,1.0,1.0,78,-99.99,,,-99.99,,2013-08-08 06:01:00,
2013-08-08 01:12:00,68.0,61.0,-100.00,NNE,20,0.0,1.0,78,-99.99,,,-99.99,,2013-08-08 06:12:00,
2013-08-08 01:22:00,68.0,61.0,-100.00,NNE,20,0.0,1.0,78,-99.99,,,-99.99,,2013-08-08 06:22:00,
2013-08-08 01:32:00,68.0,61.0,-100.00,NNE,20,0.0,1.0,78,-99.99,,,-99.99,,2013-08-08 06:32:00,
2013-08-08 01:43:00,66.0,60.0,-100.00,North,0,0.0,0.0,82,-99.99,,,-99.99,,2013-08-08 06:43:00,
2013-08-08 01:52:00,66.0,60.0,-100.00,North,0,0.0,0.0,82,-99.99,,,-99.99,,2013-08-08 06:52:00,
2013-08-08 02:01:00,65.0,60.0,-100.00,North,0,0.0,0.0,84,-99.99,,,-99.99,,2013-08-08 07:01:00,
2013-08-08 02:12:00,65.0,60.0,-100.00,North,0,0.0,0.0,84,-99.99,,,-99.99,,2013-08-08 07:12:00,
2013-08-08 02:22:00,65.0,61.0,-100.00,NNW,340,3.0,3.0,87,-99.99,,,-99.99,,2013-08-08 07:22:00,
2013-08-08 02:32:00,65.0,61.0,-100.00,North,5,3.0,4.0,88,-99.99,,,-99.99,,2013-08-08 07:32:00,
2013-08-08 02:43:00,65.0,61.0,-100.00,NE,40,4.0,4.0,87,-99.99,,,-99.99,,2013-08-08 07:43:00,
2013-08-08 03:02:00,65.0,60.0,-100.00,ENE,60,3.0,3.0,86,-99.99,,,-99.99,,2013-08-08 08:02:00,
2013-08-08 03:11:00,65.0,60.0,-100.00,ENE,60,3.0,3.0,86,-99.99,,,-99.99,,2013-08-08 08:11:00,
2013-08-08 03:22:00,65.0,61.0,-100.00,NE,55,2.0,2.0,87,-99.99,,,-99.99,,2013-08-08 08:22:00,
2013-08-08 03:32:00,63.0,59.0,-100.00,East,90,4.0,4.0,87,-99.99,,,-99.99,,2013-08-08 08:32:00,
2013-08-08 03:43:00,63.0,60.0,-100.00,East,85,4.0,5.0,88,-99.99,,,-99.99,,2013-08-08 08:43:00,
2013-08-08 03:53:00,64.0,60.0,-100.00,ENE,75,4.0,4.0,87,-99.99,,,-99.99,,2013-08-08 08:53:00,
2013-08-08 04:01:00,63.0,59.0,-100.00,ESE,105,4.0,5.0,86,-99.99,,,-99.99,,2013-08-08 09:01:00,
2013-08-08 04:12:00,63.0,59.0,-100.00,ESE,105,4.0,5.0,86,-99.99,,,-99.99,,2013-08-08 09:12:00,
2013-08-08 04:22:00,63.0,58.0,-100.00,ENE,75,3.0,4.0,84,-99.99,,,-99.99,,2013-08-08 09:22:00,
2013-08-08 04:32:00,64.0,58.0,-100.00,ENE,70,3.0,4.0,80,-99.99,,,-99.99,,2013-08-08 09:32:00,
2013-08-08 04:43:00,63.0,56.0,-100.00,East,85,3.0,3.0,79,-99.99,,,-99.99,,2013-08-08 09:43:00,
2013-08-08 04:53:00,62.0,55.0,-100.00,East,80,4.0,4.0,79,-99.99,,,-99.99,,2013-08-08 09:53:00,
2013-08-08 05:01:00,62.0,56.0,-100.00,ENE,70,4.0,5.0,81,-99.99,,,-99.99,,2013-08-08 10:01:00,
2013-08-08 05:12:00,63.0,56.0,-100.00,ENE,60,2.0,3.0,80,-99.99,,,-99.99,,2013-08-08 10:12:00,
2013-08-08 05:22:00,62.0,56.0,-100.00,NNW,340,1.0,2.0,81,-99.99,,,-99.99,,2013-08-08 10:22:00,
2013-08-08 05:32:00,62.0,56.0,-100.00,NNW,340,1.0,2.0,81,-99.99,,,-99.99,,2013-08-08 10:32:00,
2013-08-08 05:43:00,62.0,57.0,-100.00,East,85,2.0,2.0,83,-99.99,,,-99.99,,2013-08-08 10:43:00,
2013-08-08 05:52:00,62.0,57.0,-100.00,East,85,2.0,2.0,83,-99.99,,,-99.99,,2013-08-08 10:52:00,
2013-08-08 06:02:00,61.0,57.0,-100.00,ESE,120,2.0,2.0,84,-99.99,,,-99.99,,2013-08-08 11:02:00,
2013-08-08 06:11:00,62.0,57.0,-100.00,ESE,115,1.0,2.0,84,-99.99,,,-99.99,,2013-08-08 11:11:00,
2013-08-08 06:22:00,61.0,57.0,-100.00,East,90,4.0,4.0,84,-99.99,,,-99.99,,2013-08-08 11:22:00,
2013-08-08 06:32:00,61.0,55.0,-100.00,East,95,3.0,4.0,81,-99.99,,,-99.99,,2013-08-08 11:32:00,
2013-08-08 06:43:00,61.0,55.0,-100.00,ESE,110,3.0,4.0,81,-99.99,,,-99.99,,2013-08-08 11:43:00,
2013-08-08 06:52:00,62.0,56.0,-100.00,East,85,1.0,2.0,80,-99.99,,,-99.99,,2013-08-08 11:52:00,
2013-08-08 07:01:00,63.0,56.0,-100.00,NE,55,0.0,1.0,79,-99.99,,,-99.99,,2013-08-08 12:01:00,
2013-08-08 07:11:00,63.0,56.0,-100.00,NE,55,0.0,1.0,79,-99.99,,,-99.99,,2013-08-08 12:11:00,
2013-08-08 07:21:00,63.0,55.0,-100.00,North,0,1.0,1.0,76,-99.99,,,-99.99,,2013-08-08 12:21:00,
2013-08-08 07:32:00,63.0,55.0,-100.00,WNW,295,1.0,1.0,77,-99.99,,,-99.99,,2013-08-08 12:32:00,
2013-08-08 07:43:00,63.0,56.0,-100.00,WNW,295,2.0,2.0,79,-99.99,,,-99.99,,2013-08-08 12:43:00,
2013-08-08 08:01:00,64.0,58.0,-100.00,NW,310,0.0,0.0,83,-99.99,,,-99.99,,2013-08-08 13:01:00,
2013-08-08 08:11:00,65.0,60.0,-100.00,NNW,330,1.0,1.0,83,-99.99,,,-99.99,,2013-08-08 13:11:00,
2013-08-08 08:22:00,66.0,61.0,-100.00,NW,325,0.0,0.0,83,-99.99,,,-99.99,,2013-08-08 13:22:00,
2013-08-08 08:32:00,66.0,60.0,-100.00,NNE,15,1.0,2.0,79,-99.99,,,-99.99,,2013-08-08 13:32:00,
2013-08-08 08:43:00,66.0,60.0,-100.00,NNE,15,1.0,2.0,79,-99.99,,,-99.99,,2013-08-08 13:43:00,
2013-08-08 08:52:00,66.0,56.0,-100.00,East,85,2.0,3.0,69,-99.99,,,-99.99,,2013-08-08 13:52:00,
2013-08-08 09:02:00,67.0,56.0,-100.00,East,95,0.0,1.0,67,-99.99,,,-99.99,,2013-08-08 14:02:00,
2013-08-08 09:11:00,68.0,56.0,-100.00,ESE,110,1.0,2.0,65,-99.99,,,-99.99,,2013-08-08 14:11:00,
2013-08-08 09:22:00,70.0,56.0,-100.00,SE,130,2.0,4.0,63,-99.99,,,-99.99,,2013-08-08 14:22:00,
2013-08-08 09:32:00,70.0,56.0,-100.00,SE,125,4.0,5.0,61,-99.99,,,-99.99,,2013-08-08 14:32:00,
2013-08-08 09:43:00,70.0,56.0,-100.00,SE,125,4.0,5.0,61,-99.99,,,-99.99,,2013-08-08 14:43:00,
2013-08-08 09:53:00,71.0,56.0,-100.00,ESE,110,5.0,6.0,59,-99.99,,,-99.99,,2013-08-08 14:53:00,
2013-08-08 10:02:00,71.0,56.0,-100.00,ESE,110,5.0,6.0,59,-99.99,,,-99.99,,2013-08-08 15:02:00,
2013-08-08 10:11:00,72.0,56.0,-100.00,SE,145,4.0,5.0,56,-99.99,,,-99.99,,2013-08-08 15:11:00,
2013-08-08 10:22:00,72.0,56.0,-100.00,SE,145,4.0,5.0,56,-99.99,,,-99.99,,2013-08-08 15:22:00,
2013-08-08 10:32:00,73.0,55.0,-100.00,SSE,155,5.0,6.0,53,-99.99,,,-99.99,,2013-08-08 15:32:00,
2013-08-08 10:43:00,74.0,55.0,-100.00,SE,130,6.0,6.0,52,-99.99,,,-99.99,,2013-08-08 15:43:00,
2013-08-08 10:53:00,74.0,55.0,-100.00,SE,130,6.0,6.0,52,-99.99,,,-99.99,,2013-08-08 15:53:00,
2013-08-08 11:22:00,77.0,56.0,-100.00,SSW,195,1.0,3.0,48,-99.99,,,-99.99,,2013-08-08 16:22:00,
2013-08-08 11:32:00,78.0,55.0,-100.00,WSW,240,0.0,1.0,46,-99.99,,,-99.99,,2013-08-08 16:32:00,
2013-08-08 11:42:00,78.0,55.0,-100.00,SE,135,4.0,5.0,45,-99.99,,,-99.99,,2013-08-08 16:42:00,
2013-08-08 13:43:00,80.0,53.0,-100.00,North,0,5.0,6.0,39,-99.99,,,-99.99,,2013-08-08 18:43:00,
2013-08-08 14:22:00,80.0,53.0,-100.00,ENE,75,5.0,7.0,39,-99.99,,,-99.99,,2013-08-08 19:22:00,
2013-08-08 14:32:00,80.0,53.0,-100.00,NE,40,4.0,5.0,40,-99.99,,,-99.99,,2013-08-08 19:32:00,
2013-08-08 14:43:00,80.0,53.0,-100.00,East,100,2.0,3.0,39,-99.99,,,-99.99,,2013-08-08 19:43:00,
2013-08-08 15:42:00,81.0,54.0,-100.00,North,350,6.0,7.0,39,-99.99,,,-99.99,,2013-08-08 20:42:00,
2013-08-08 16:33:00,83.0,53.0,-100.00,NE,45,1.0,2.0,36,-99.99,,,-99.99,,2013-08-08 21:33:00,
2013-08-08 17:04:00,82.0,53.0,-100.00,North,0,0.0,1.0,37,-99.99,,,-99.99,,2013-08-08 22:04:00,
2013-08-08 17:16:00,85.0,53.0,-100.00,NW,315,6.0,7.0,34,-99.99,,,-99.99,,2013-08-08 22:16:00,
2013-08-08 18:14:00,80.0,55.0,-100.00,WNW,300,5.0,6.0,42,-99.99,,,-99.99,,2013-08-08 23:14:00,
2013-08-08 18:36:00,78.0,54.0,-100.00,West,260,4.0,4.0,43,-99.99,,,-99.99,,2013-08-08 23:36:00,
2013-08-08 19:05:00,77.0,54.0,-100.00,West,280,2.0,3.0,45,-99.99,,,-99.99,,2013-08-09 00:05:00,
2013-08-08 19:14:00,77.0,55.0,-100.00,WNW,295,4.0,5.0,46,-99.99,,,-99.99,,2013-08-09 00:14:00,
2013-08-08 19:24:00,77.0,55.0,-100.00,WNW,295,4.0,5.0,46,-99.99,,,-99.99,,2013-08-09 00:24:00,
2013-08-08 19:34:00,77.0,55.0,-100.00,WNW,295,4.0,5.0,46,-99.99,,,-99.99,,2013-08-09 00:34:00,
2013-08-08 19:45:00,77.0,55.0,-100.00,WNW,295,4.0,5.0,46,-99.99,,,-99.99,,2013-08-09 00:45:00,
2013-08-08 20:03:00,75.0,55.0,-100.00,WNW,300,6.0,6.0,49,-99.99,,,-99.99,,2013-08-09 01:03:00,
2013-08-08 20:25:00,75.0,55.0,-100.00,WNW,290,3.0,4.0,51,-99.99,,,-99.99,,2013-08-09 01:25:00,
2013-08-08 20:45:00,74.0,56.0,-100.00,SSE,165,1.0,1.0,53,-99.99,,,-99.99,,2013-08-09 01:45:00,
2013-08-08 20:59:00,74.0,56.0,-100.00,SSE,165,1.0,1.0,53,-99.99,,,-99.99,,2013-08-09 01:59:00,
2013-08-08 21:13:00,73.0,56.0,-100.00,North,355,1.0,1.0,57,-99.99,,,-99.99,,2013-08-09 02:13:00,
2013-08-08 21:24:00,73.0,56.0,-100.00,North,355,1.0,1.0,57,-99.99,,,-99.99,,2013-08-09 02:24:00,
2013-08-08 21:45:00,71.0,59.0,-100.00,SE,130,0.0,0.0,66,-99.99,,,-99.99,,2013-08-09 02:45:00,
2013-08-08 21:55:00,70.0,60.0,-100.00,SE,140,2.0,2.0,70,-99.99,,,-99.99,,2013-08-09 02:55:00,
2013-08-08 22:06:00,70.0,60.0,-100.00,SE,140,2.0,2.0,70,-99.99,,,-99.99,,2013-08-09 03:06:00,
2013-08-08 22:15:00,71.0,62.0,-100.00,ESE,105,0.0,1.0,73,-99.99,,,-99.99,,2013-08-09 03:15:00,
2013-08-08 22:24:00,71.0,62.0,-100.00,SE,140,0.0,1.0,73,-99.99,,,-99.99,,2013-08-09 03:24:00,
2013-08-08 22:45:00,70.0,62.0,-100.00,SE,140,1.0,2.0,75,-99.99,,,-99.99,,2013-08-09 03:45:00,
2013-08-08 22:53:00,70.0,62.0,-100.00,SSE,155,1.0,1.0,77,-99.99,,,-99.99,,2013-08-09 03:53:00,
2013-08-08 23:01:00,70.0,63.0,-100.00,South,180,3.0,4.0,79,-99.99,,,-99.99,,2013-08-09 04:01:00,
2013-08-08 23:12:00,70.0,63.0,-100.00,ESE,105,1.0,1.0,80,-99.99,,,-99.99,,2013-08-09 04:12:00,
2013-08-08 23:22:00,70.0,63.0,-100.00,SE,130,2.0,2.0,80,-99.99,,,-99.99,,2013-08-09 04:22:00,
2013-08-08 23:33:00,70.0,63.0,-100.00,SE,130,2.0,2.0,80,-99.99,,,-99.99,,2013-08-09 04:33:00,
2013-08-08 23:43:00,69.0,63.0,-100.00,South,170,4.0,4.0,82,-99.99,,,-99.99,,2013-08-09 04:43:00,